Regional Weather Roundup
Issued by NWS

Home | Current Version | Previous Version | Graphics & Text | Print | Product List | Glossary On
Versions: 1 2 3 4 5 6 7 8 9 10 11 12 13 14 15 16 17 18 19 20 21 22 23 24 25 26 27 28 29 30 31 32 33 34 35 36 37 38 39 40 41 42 43 44 45 46 47 48 49 50
343
ASUS45 KCYS 211510
RWRWY

WYOMING REGIONAL WEATHER ROUNDUP
NATIONAL WEATHER SERVICE CHEYENNE WY
800 AM MST TUE FEB 21 2017

NOTE:  "FAIR" INDICATES FEW OR NO CLOUDS BELOW 12,000 FEET
WITH NO SIGNIFICANT WEATHER AND/OR OBSTRUCTIONS TO VISIBILITY.

WYZ001-211600-
YELLOWSTONE NATIONAL PARK

CITY           SKY/WX    TMP DP  RH WIND       PRES   REMARKS
LK YELLOWSTONE   N/A     32  29  88 W13G23    29.86S WCI  22
W YELLOWSTONE  NOT AVBL

$$
WYZ002>013-054>058-071-098>099-211600-
NORTHERN WYOMING

CITY           SKY/WX    TMP DP  RH WIND       PRES   REMARKS
JACKSON        MOCLDY    37  34  87 S23G30    29.90R WCI  26
CODY           FAIR      39  32  76 S7        29.77F WCI  34
GREYBULL       FAIR      35  31  85 CALM      29.78S
WORLAND        FAIR      36  31  82 NE3       29.79R
SHERIDAN       FAIR      43  31  62 SW14      29.73R
BUFFALO        FAIR      53  29  39 W21       29.77R
GILLETTE       FAIR      50  33  52 SW23G31   29.75R
HULETT         FAIR      48  32  53 S14G20    29.78S
NEWCASTLE      FAIR      46  32  57 E13G20    29.86R

$$
WYZ014>020-022>026-101>103-211600-
CENTRAL WYOMING

CITY           SKY/WX    TMP DP  RH WIND       PRES   REMARKS
BIG PINEY      CLOUDY    36  32  85 SW20      30.01S WCI  25
PINEDALE       DRIZZLE   36  32  87 SW15      30.02R WCI  26
DUBOIS         DRIZZLE   34  32  93 NW15      29.87S WCI  24
LANDER         LGT RAIN  48  32  53 SW16G23   29.89S
RIVERTON       FAIR      43  33  68 S12       29.90S
CASPER         FAIR      46  32  58 SW29G40   29.89S
DOUGLAS        FAIR      53  29  39 W28G44    29.90R

$$
WYZ021-027>030-104>119-211600-
SOUTHERN WYOMING

CITY           SKY/WX    TMP DP  RH WIND       PRES   REMARKS
EVANSTON       FAIR      38  30  73 SW22      30.06R WCI  27
KEMMERER         N/A     36  32  87 SW17      30.05R WCI  25
FORT BRIDGER   FAIR      41  30  65 SW17      30.09R
ROCK SPRINGS   FAIR      39  29  67 SW8       30.06S WCI  33
DIXON            N/A     44  31  61 SW20G28   30.17R
RAWLINS        CLOUDY    41  31  67 SW26G39   30.08S
SARATOGA       FAIR      41  30  65 SW23G31   30.13R
LARAMIE        FAIR      42  27  55 W16G23    30.10R
CHEYENNE       FAIR      50  25  37 W25G39    30.04R
TORRINGTON     FAIR      56  28  34 W31G38    29.89S
PINE BLUFFS    FAIR      52  27  37 W16G29    29.97S

$$




USA.gov is the U.S. government's official web portal to all federal, state and local government web resources and services.